User: anonymous   Login
Location: S�tio Afonso Gruber
(26.1760°S, 49.5250°W)
Time: 12:20:32
(UTC+00:00)
Language:

MOZHAYETS 4 - Orbit

View from above orbital plane
View from above orbital plane
View from above satellite
View from above satellite

Ground track
Ground track

The orbit data is extracted from the following two-line orbital elements,

1 27939U 03042A   22342.13227315  .00000819  00000-0  15261-3 0  9992
2 27939  98.2145 123.1003 0013071  25.4494 334.7339 14.67649612 26513
Epoch (UTC): 08 December 2022 03:10:28
Eccentricity: 0.0013071
inclination: 98.2145°
perigee height: 659 km
apogee height: 678 km
right ascension of ascending node: 123.1003°
argument of perigee: 25.4494°
revolutions per day: 14.67649612
mean anomaly at epoch: 334.7339°
orbit number at epoch: 2651

The dashed part of the orbit path shows where the satellite is in the earth's shadow,  

DLR